[[{"header":{"parameterUnit":"m.s-1","parameterCategory":1,"la1":30.2991,"la2":30.254,"lo1":-89.0895,"lo2":-89.0444,"dy":0.0017,"dx":0.0017,"nx":28,"ny":28,"refTime":"2023-09-07T09:00:00:Z","depth":0,"parameterNumber":2,"parameterNumberName":"U-component_of_WINDS"},"data":[0,0,0,0,0,0,0,0,0,0,0,0,0,0,0,0,0,0,0,0,0,0,0,0,0,0,0,0,0,0,0,0,0,0,0,0,0,0,0,0,0,0,0,0,0,0,0,0,0,0,0,0,0,0,0,0,0,0,0.9129,0.9129,0,0.9133,0.9133,0.9133,0.9119,0.9119,0.9118,0.9118,0.9121,0.9121,0.9122,0,0,0,0,0,0,0,0,0,0,0,0,0,0.9111,0.9111,0.9129,0.9129,0.913,0.9133,0.9133,0.9133,0.9119,0.9119,0.9118,0.9118,0.9121,0.9121,0.9122,0,0,0,0,0,0,0,0,0,0,0,0,0,0.9117,0.9111,0.9129,0.9123,0.9123,0.9133,0.9133,0.9133,0.9119,0.9119,0.9118,0.9117,0.912,0.9121,0.9122,0.9138,0,0,0.9124,0.9124,0,0,0,0,0,0,0,0,0.9116,0.9117,0.9124,0.9124,0.9123,0.9125,0.9127,0.9135,0.9119,0.912,0.9118,0.9117,0.9123,0.9123,0.9125,0.9138,0.9138,0.9124,0.9124,0.9125,0.9125,0,0,0,0,0,0,0,0.9116,0.9117,0.9131,0.9124,0.9123,0.912,0.912,0.9128,0.9125,0.912,0.9119,0.912,0.9122,0.9124,0.9125,0.9138,0.9124,0.9124,0.9125,0.9125,0.9164,0.9164,0,0,0,0,0,0,0.9116,0.9117,0.9131,0.9131,0.9118,0.9121,0.9121,0.9125,0.9125,0.9124,0.912,0.9119,0.9123,0.9124,0.9125,0.9143,0.9125,0.9125,0.9126,0.9163,0.9164,0.9164,0,0,0,0,0,0,0.9116,0.9118,0.913,0.9124,0.9125,0.9122,0.9126,0.9125,0.9127,0.9125,0.9124,0.9123,0.9123,0.9124,0.9135,0.9143,0.9126,0.9126,0.9162,0.9163,0.9164,0.9179,0,0,0,0,0,0,0.9116,0.9118,0.9124,0.9124,0.9125,0.914,0.9127,0.9126,0.9129,0.9127,0.9127,0.9127,0.9123,0.9134,0.9135,0.9143,0.9127,0.9162,0.9163,0.9164,0.9178,0.9181,0.9183,0,0,0,0,0,0.9115,0.9129,0.9125,0.9126,0.9133,0.9141,0.9142,0.9137,0.9129,0.9135,0.9134,0.9127,0.9142,0.9135,0.9137,0.9145,0.9161,0.9162,0.9164,0.9177,0.918,0.9183,0,0,0,0,0,0,0.913,0.9128,0.9124,0.9138,0.914,0.9138,0.9146,0.914,0.9144,0.9143,0.9136,0.9136,0.9148,0.9148,0.914,0.916,0.915,0.9152,0.916,0.9163,0.9165,0.9164,0.9127,0,0,0,0,0,0.9135,0.9141,0.914,0.9152,0.9153,0.9149,0.9153,0.9149,0.915,0.9151,0.915,0.9151,0.9156,0.916,0.9164,0.9178,0.9178,0.9185,0.9187,0.9189,0.9191,0.9197,0.92,0.9169,0.9169,0.9169,0,0,0.9145,0.9145,0.9149,0.9155,0.9156,0.9162,0.915,0.9158,0.9162,0.9152,0.9161,0.9161,0.9162,0.9174,0.918,0.9174,0.9199,0.9191,0.9193,0.9193,0.9199,0.9202,0.9204,0.917,0.917,0.917,0,0,0.9166,0.9167,0.9177,0.9178,0.918,0.9177,0.918,0.9179,0.9178,0.9188,0.918,0.9185,0.9194,0.9195,0.9197,0.9218,0.9211,0.922,0.9232,0.9238,0.9241,0.9243,0.9249,0.9252,0.9221,0.9221,0.9221,0,0.9178,0.9188,0.9183,0.9191,0.9193,0.9184,0.9193,0.9195,0.9198,0.9199,0.9194,0.9204,0.9204,0.9216,0.9221,0.9223,0.9225,0.9219,0.9241,0.9243,0.9245,0.9251,0.9253,0.9222,0.9222,0.9222,0.9222,0,0.9202,0.9209,0.9217,0.9219,0.9222,0.9231,0.9227,0.9231,0.9227,0.9225,0.9234,0.9234,0.9238,0.9241,0.9237,0.9252,0.9248,0.9242,0.9231,0.9249,0.9254,0.9257,0.9224,0.9223,0.9223,0.9223,0,0,0.9233,0.9232,0.9235,0.9235,0.9236,0.9241,0.9249,0.9253,0.9256,0.9258,0.9264,0.9272,0.9266,0.9267,0.9264,0.9269,0.9285,0.9262,0.9262,0.9265,0.93,0.9303,0.9306,0.9281,0.9281,0.9282,0.9299,0,0.9252,0.9266,0.9261,0.9275,0.928,0.9272,0.9279,0.9279,0.9278,0.9282,0.928,0.9285,0.9277,0.9278,0.9284,0.9282,0.9291,0.9281,0.9285,0.9285,0.9284,0.9309,0.9313,0.933,0.9301,0.9302,0.9302,0,0.9277,0.928,0.9294,0.9293,0.9295,0.9301,0.9304,0.9308,0.9309,0.9307,0.9309,0.9304,0.9311,0.9302,0.9311,0.9304,0.9306,0.9305,0.9305,0.9305,0.9294,0.9308,0.9335,0.9337,0.9305,0.9305,0.9305,0,0.9296,0.9304,0.9313,0.9314,0.9313,0.9317,0.9317,0.9317,0.932,0.9322,0.9323,0.9327,0.9328,0.9331,0.9327,0.932,0.9336,0.9327,0.9334,0.9334,0.9337,0.9337,0.9364,0.934,0.934,0.934,0.934,0,0.9318,0.9326,0.9321,0.9326,0.9335,0.933,0.9339,0.9338,0.9338,0.9343,0.9337,0.9341,0.9336,0.934,0.9336,0.9344,0.9345,0.9343,0.9342,0.9343,0.9343,0.9343,0.9342,0.9341,0.9341,0.9341,0.9341,0,0.934,0.9337,0.9346,0.9345,0.9344,0.9351,0.935,0.9354,0.9352,0.9358,0.9359,0.9356,0.936,0.9356,0.9361,0.9358,0.9368,0.9366,0.9368,0.9367,0.9374,0.9373,0.9401,0.9404,0.938,0.938,0.938,0,0.9354,0.936,0.9359,0.9362,0.9362,0.9367,0.9369,0.9364,0.9366,0.9367,0.9372,0.9375,0.9378,0.9385,0.9383,0.9386,0.9383,0.9392,0.9383,0.9384,0.9381,0.938,0.9381,0.9394,0.9394,0.9394,0.9395,0,0.9378,0.9376,0.9379,0.9382,0.9384,0.9386,0.9388,0.939,0.9385,0.9388,0.9392,0.9394,0.9398,0.9402,0.9404,0.9403,0.9398,0.9398,0.9399,0.94,0.94,0.9399,0.9371,0.9397,0.9396,0.9396,0.9396,0.9396,0.9395,0.94,0.94,0.9403,0.9404,0.9405,0.9409,0.9407,0.9411,0.9413,0.9411,0.9415,0.9415,0.9418,0.9418,0.9421,0.9417,0.942,0.9421,0.9421,0.9421,0.9401,0.9422,0.9422,0.9422,0.9422,0.9422,0,0.9418,0.9417,0.9421,0.9422,0.9425,0.942,0.9421,0.9424,0.9428,0.9429,0.9431,0.9435,0.9438,0.9437,0.9439,0.9442,0.944,0.9443,0.9442,0.9442,0.9426,0.9423,0.9445,0.9445,0.9445,0.9445,0.9445,0.9445,0.9429,0.9437,0.9435,0.9442,0.9441,0.9446,0.9447,0.9448,0.9448,0.9453,0.9455,0.9454,0.9453,0.9456,0.9458,0.9458,0.9458,0.9462,0.9461,0.9445,0.9443,0.9441,0.9439,0.9463,0.9463,0.9476,0.9476,0.9477]},{"header":{"parameterUnit":"m.s-1","parameterCategory":1,"la1":30.2991,"la2":30.254,"lo1":-89.0895,"lo2":-89.0444,"dy":0.0017,"dx":0.0017,"nx":28,"ny":28,"refTime":"2023-09-07T09:00:00:Z","depth":0,"parameterNumber":3,"parameterNumberName":"V-component_of_WINDS"},"data":[0,0,0,0,0,0,0,0,0,0,0,0,0,0,0,0,0,0,0,0,0,0,0,0,0,0,0,0,0,0,0,0,0,0,0,0,0,0,0,0,0,0,0,0,0,0,0,0,0,0,0,0,0,0,0,0,0,0,-0.5407,-0.5407,0,-0.5404,-0.5404,-0.5404,-0.539,-0.5389,-0.5389,-0.5389,-0.5388,-0.5388,-0.5388,0,0,0,0,0,0,0,0,0,0,0,0,0,-0.5404,-0.5404,-0.5407,-0.5407,-0.5407,-0.5404,-0.5404,-0.5404,-0.539,-0.5389,-0.5389,-0.5389,-0.5388,-0.5388,-0.5388,0,0,0,0,0,0,0,0,0,0,0,0,0,-0.5404,-0.5404,-0.5407,-0.54,-0.5399,-0.5404,-0.5404,-0.5404,-0.539,-0.5389,-0.5389,-0.5388,-0.5387,-0.5388,-0.5388,-0.5401,0,0,-0.539,-0.539,0,0,0,0,0,0,0,0,-0.5404,-0.5404,-0.5401,-0.54,-0.54,-0.5397,-0.5403,-0.5403,-0.539,-0.5393,-0.5389,-0.5388,-0.5391,-0.5391,-0.5392,-0.5401,-0.5401,-0.539,-0.539,-0.539,-0.539,0,0,0,0,0,0,0,-0.5404,-0.5404,-0.5406,-0.5401,-0.54,-0.5398,-0.5397,-0.5403,-0.5395,-0.5393,-0.5392,-0.5392,-0.5391,-0.5392,-0.5392,-0.5401,-0.539,-0.539,-0.539,-0.539,-0.5423,-0.5424,0,0,0,0,0,0,-0.5405,-0.5404,-0.5406,-0.5406,-0.54,-0.5398,-0.5397,-0.5398,-0.5395,-0.5394,-0.5392,-0.5391,-0.5391,-0.5391,-0.5392,-0.5408,-0.539,-0.539,-0.5391,-0.5422,-0.5423,-0.5424,0,0,0,0,0,0,-0.5405,-0.5405,-0.5407,-0.5405,-0.5405,-0.5399,-0.54,-0.5399,-0.5399,-0.5395,-0.5393,-0.5394,-0.5391,-0.5391,-0.5399,-0.5408,-0.5391,-0.5391,-0.5422,-0.5423,-0.5423,-0.5439,0,0,0,0,0,0,-0.5404,-0.5405,-0.5409,-0.5405,-0.5405,-0.5413,-0.54,-0.5399,-0.54,-0.5398,-0.5396,-0.5395,-0.539,-0.5399,-0.54,-0.5408,-0.5391,-0.5421,-0.5422,-0.5423,-0.5438,-0.5441,-0.5443,0,0,0,0,0,-0.5404,-0.5414,-0.5409,-0.541,-0.541,-0.5414,-0.5414,-0.5407,-0.54,-0.5405,-0.5402,-0.5395,-0.5407,-0.54,-0.5401,-0.5409,-0.542,-0.5422,-0.5423,-0.5437,-0.544,-0.5443,0,0,0,0,0,0,-0.5419,-0.5413,-0.5408,-0.5416,-0.5415,-0.5411,-0.5417,-0.5411,-0.5412,-0.5411,-0.5404,-0.5403,-0.5413,-0.5412,-0.5404,-0.5422,-0.5412,-0.5414,-0.5423,-0.5426,-0.5428,-0.5428,-0.5392,0,0,0,0,0,-0.5423,-0.5426,-0.5421,-0.5429,-0.5429,-0.5423,-0.5424,-0.5419,-0.5419,-0.5419,-0.5416,-0.5417,-0.5421,-0.5423,-0.5426,-0.5438,-0.5438,-0.5445,-0.5447,-0.5449,-0.5451,-0.5458,-0.5461,-0.5428,-0.5428,-0.5428,0,0,-0.5432,-0.5429,-0.5431,-0.5432,-0.543,-0.5435,-0.5423,-0.5427,-0.5431,-0.5419,-0.5427,-0.5426,-0.5426,-0.5436,-0.5441,-0.5436,-0.546,-0.5451,-0.5452,-0.5453,-0.546,-0.5463,-0.5466,-0.5429,-0.5429,-0.5429,0,0,-0.545,-0.5447,-0.5454,-0.5453,-0.5452,-0.5448,-0.545,-0.5447,-0.5446,-0.5453,-0.5445,-0.545,-0.5456,-0.5457,-0.5458,-0.5478,-0.5472,-0.5479,-0.5492,-0.55,-0.5502,-0.5505,-0.5513,-0.5516,-0.5481,-0.5481,-0.5481,0,-0.5461,-0.5466,-0.5458,-0.5464,-0.5465,-0.5455,-0.5462,-0.5462,-0.5462,-0.5464,-0.5458,-0.5467,-0.5466,-0.5477,-0.5482,-0.5483,-0.5486,-0.5479,-0.5502,-0.5505,-0.5507,-0.5514,-0.5517,-0.5482,-0.5482,-0.5482,-0.5482,0,-0.548,-0.5484,-0.549,-0.549,-0.5491,-0.5498,-0.5493,-0.5495,-0.5491,-0.5489,-0.5497,-0.5496,-0.55,-0.5502,-0.5498,-0.5513,-0.551,-0.5504,-0.5493,-0.5511,-0.5518,-0.5521,-0.5483,-0.5483,-0.5483,-0.5482,0,0,-0.5506,-0.5503,-0.5505,-0.5505,-0.5504,-0.5507,-0.5514,-0.5517,-0.552,-0.5521,-0.5527,-0.5534,-0.5528,-0.5529,-0.5525,-0.5532,-0.555,-0.5525,-0.5525,-0.553,-0.5568,-0.5573,-0.5577,-0.5546,-0.5546,-0.5547,-0.5568,0,-0.5523,-0.5534,-0.5528,-0.554,-0.5544,-0.5536,-0.5542,-0.5543,-0.5541,-0.5545,-0.5544,-0.5548,-0.554,-0.5541,-0.5547,-0.5546,-0.5557,-0.5544,-0.5553,-0.5553,-0.5553,-0.558,-0.5585,-0.5606,-0.5571,-0.5571,-0.5572,0,-0.5545,-0.5547,-0.5559,-0.5558,-0.5559,-0.5565,-0.5568,-0.5572,-0.5573,-0.5571,-0.5574,-0.5569,-0.5577,-0.5567,-0.5578,-0.557,-0.5573,-0.5573,-0.5574,-0.5575,-0.5563,-0.5582,-0.5612,-0.5615,-0.5576,-0.5576,-0.5575,0,-0.5564,-0.5569,-0.5577,-0.5578,-0.5577,-0.5581,-0.5581,-0.5581,-0.5584,-0.5587,-0.5589,-0.5593,-0.5596,-0.56,-0.5597,-0.5589,-0.561,-0.5599,-0.5609,-0.561,-0.5614,-0.5614,-0.5645,-0.5615,-0.5615,-0.5615,-0.5615,0,-0.5584,-0.5592,-0.5586,-0.5591,-0.56,-0.5594,-0.5604,-0.5603,-0.5604,-0.561,-0.5603,-0.5609,-0.5604,-0.561,-0.5608,-0.5619,-0.562,-0.562,-0.5619,-0.562,-0.562,-0.5622,-0.5621,-0.5616,-0.5616,-0.5616,-0.5616,0,-0.5606,-0.5602,-0.5611,-0.5609,-0.5609,-0.5616,-0.5616,-0.5621,-0.5619,-0.5627,-0.5628,-0.5626,-0.5632,-0.563,-0.5637,-0.5636,-0.565,-0.5647,-0.5649,-0.5649,-0.566,-0.5659,-0.5694,-0.5698,-0.5665,-0.5666,-0.5666,0,-0.562,-0.5626,-0.5625,-0.5628,-0.5628,-0.5633,-0.5636,-0.5631,-0.5635,-0.5637,-0.5643,-0.5649,-0.5653,-0.5665,-0.5664,-0.567,-0.5668,-0.568,-0.5669,-0.5671,-0.5669,-0.5669,-0.567,-0.5682,-0.5683,-0.5683,-0.5683,0,-0.5644,-0.5642,-0.5646,-0.565,-0.5653,-0.5656,-0.5658,-0.5661,-0.5657,-0.5661,-0.5668,-0.5671,-0.5679,-0.5685,-0.5691,-0.5692,-0.5688,-0.5687,-0.569,-0.5691,-0.5692,-0.5693,-0.5656,-0.5686,-0.5686,-0.5685,-0.5685,-0.5685,-0.5663,-0.5668,-0.5669,-0.5674,-0.5675,-0.5678,-0.5683,-0.5682,-0.5687,-0.5692,-0.569,-0.5698,-0.5701,-0.5707,-0.571,-0.5717,-0.5712,-0.5716,-0.5717,-0.5719,-0.572,-0.5691,-0.5718,-0.5718,-0.5718,-0.5717,-0.5717,0,-0.5688,-0.5688,-0.5692,-0.5696,-0.57,-0.5695,-0.5697,-0.5702,-0.5709,-0.5711,-0.5716,-0.5724,-0.5731,-0.5732,-0.5738,-0.5744,-0.5742,-0.5746,-0.5746,-0.5747,-0.5723,-0.5721,-0.5748,-0.5748,-0.5748,-0.5748,-0.5748,-0.5748,-0.5701,-0.571,-0.5709,-0.5719,-0.5719,-0.5727,-0.5729,-0.5732,-0.5734,-0.5744,-0.5749,-0.5749,-0.5751,-0.5759,-0.5765,-0.5765,-0.5768,-0.5773,-0.5773,-0.5751,-0.5748,-0.5745,-0.5743,-0.5774,-0.5774,-0.5796,-0.5796,-0.5796]}]]